Flag for U.S.A. Weather past 2 weeks in Chattanooga, Tennessee, U.S.A.

64 °F

Passing clouds.

Feels Like: 64 °F
Forecast: 50 / 69 °F
Wind: No wind

Location: Lovell Field

Current Time: Nov 27, 2015 at 6:53:48 PM

Latest Report: Nov 27, 2015 at 5:53 PM

Visibility: 10 mi

Pressure: 30.32 "Hg

Humidity: 61%

Dew point: 50 °F

Location of ChattanoogaLocation

Historic Weather in Chattanooga — Graph


Chattanooga temperature yesterday

Maximum temperature yesterday: 70 °F (at 2:53 PM)
Minimum temperature yesterday: 38 °F (at 5:53 AM)
Average temperature yesterday: 52 °F

Past Weeks' High & Low Weather Summary

High70 °F (Nov 26, 2:53 PM)100% (Nov 19, 4:53 AM)30.64 "Hg (Nov 19, 4:53 AM)
Low28 °F (Nov 23, 5:53 AM)14% (Nov 13, 3:53 PM)29.84 "Hg (Nov 18, 6:53 PM)
Average50 °F64%30.26 "Hg
* Reported Nov 12 4:53 PM — Nov 27 4:53 PM, Chattanooga, Weather by CustomWeather, © 2015

Note: Actual official high and low records may vary slightly from our data, if they occured in-between our weather recording intervals... More about our weather records


Chattanooga weather history for previous 24 hours

Time TempWeatherWind HumidityBarometerVisibility
4:53 PM
Fri, Nov 27
67 °FBroken clouds.5 mph53%30.33 "Hg10 mi
3:53 PM70 °FBroken clouds.9 mph47%30.34 "Hg10 mi
2:53 PM70 °FBroken clouds.7 mph49%30.34 "Hg10 mi
1:53 PM70 °FBroken clouds.9 mph49%30.38 "Hg10 mi
12:53 PM69 °FBroken clouds.8 mph53%30.41 "Hg10 mi
11:53 AM66 °FBroken clouds.3 mph59%30.45 "Hg10 mi
10:53 AM63 °FBroken clouds.No wind65%30.47 "Hg10 mi
9:53 AM57 °FBroken clouds.No wind78%30.49 "Hg10 mi
8:53 AM50 °FScattered clouds.No wind86%30.50 "Hg10 mi
7:53 AM43 °FScattered clouds.3 mph97%30.49 "Hg10 mi
6:53 AM44 °FPassing clouds.3 mph89%30.47 "Hg10 mi
5:53 AM42 °FPassing clouds.3 mph96%30.47 "Hg10 mi
4:53 AM45 °FClear.No wind90%30.45 "Hg10 mi
3:53 AM45 °FClear.No wind93%30.48 "Hg10 mi
2:53 AM47 °FClear.No wind90%30.49 "Hg10 mi
1:53 AM48 °FPassing clouds.No wind86%30.50 "Hg10 mi
12:53 AM47 °FClear.No wind90%30.51 "Hg10 mi
11:53 PM
Thu, Nov 26
47 °FPassing clouds.No wind90%30.51 "Hg10 mi
10:53 PM50 °FPassing clouds.No wind83%30.50 "Hg10 mi
9:53 PM51 °FPassing clouds.No wind80%30.51 "Hg10 mi
8:53 PM53 °FClear.No wind77%30.50 "Hg10 mi
7:53 PM59 °FPassing clouds.3 mph62%30.51 "Hg10 mi
6:53 PM60 °FPassing clouds.No wind60%30.51 "Hg10 mi
Weather by CustomWeather, © 2015

See weather overviewHow to use our weather pages